| time (UTC) | temp C | wind direction | speed KPH | gust KPH | rain 1hr cm | rain 24hr cm | rain mn cm | humidity % | barometer mb |
| 20260505124559 | 16 | 176 | 12.9 | 19.3 | 0.00 | 0.00 | 0.00 | 68 | 1010.4 |
| 20260505124058 | 16 | 122 | 3.2 | 16.1 | 0.00 | 0.00 | 0.00 | 68 | 1010.1 |
| 20260505123559 | 16 | 180 | 12.9 | 16.1 | 0.00 | 0.00 | 0.00 | 68 | 1010.1 |
| 20260505123059 | 16 | 168 | 12.9 | 14.5 | 0.00 | 0.00 | 0.00 | 68 | 1010.1 |
| 20260505122559 | 16 | 159 | 3.2 | 14.5 | 0.00 | 0.00 | 0.00 | 68 | 1010.1 |
| 20260505122059 | 16 | 170 | 14.5 | 14.5 | 0.00 | 0.00 | 0.00 | 68 | 1010.1 |
| 20260505121558 | 15 | 169 | 8.0 | 14.5 | 0.00 | 0.00 | 0.00 | 68 | 1009.7 |
| 20260505121059 | 15 | 169 | 8.0 | 17.7 | 0.00 | 0.00 | 0.00 | 68 | 1009.7 |
| 20260505120559 | 15 | 118 | 9.7 | 17.7 | 0.00 | 0.00 | 0.00 | 69 | 1009.7 |
| 20260505120059 | 15 | 181 | 11.3 | 17.7 | 0.00 | 0.00 | 0.00 | 69 | 1009.7 |
| 20260505115558 | 15 | 135 | 8.0 | 16.1 | 0.00 | 0.00 | 0.00 | 69 | 1009.7 |
| 20260505115059 | 15 | 162 | 4.8 | 17.7 | 0.00 | 0.00 | 0.00 | 69 | 1009.7 |
| 20260505114600 | 15 | 195 | 9.7 | 17.7 | 0.00 | 0.00 | 0.00 | 69 | 1009.7 |
| 20260505114059 | 15 | 191 | 8.0 | 17.7 | 0.00 | 0.00 | 0.00 | 69 | 1009.7 |
| 20260505113559 | 15 | 177 | 14.5 | 17.7 | 0.00 | 0.00 | 0.00 | 69 | 1009.7 |
| 20260505113059 | 15 | 181 | 12.9 | 16.1 | 0.00 | 0.00 | 0.00 | 68 | 1009.4 |
| 20260505112559 | 15 | 187 | 8.0 | 16.1 | 0.00 | 0.00 | 0.00 | 68 | 1009.4 |
| 20260505112059 | 15 | 182 | 12.9 | 14.5 | 0.00 | 0.00 | 0.00 | 68 | 1009.4 |
| 20260505111558 | 15 | 196 | 9.7 | 14.5 | 0.00 | 0.00 | 0.00 | 67 | 1009.4 |
| 20260505111059 | 15 | 192 | 12.9 | 17.7 | 0.00 | 0.00 | 0.00 | 67 | 1009.4 |
| 20260505110559 | 15 | 191 | 6.4 | 19.3 | 0.00 | 0.00 | 0.00 | 67 | 1009.0 |
| 20260505102058 | 16 | 182 | 11.3 | 17.7 | 0.00 | 0.00 | 0.00 | 66 | 1008.7 |
| 20260505101559 | 16 | 153 | 14.5 | 19.3 | 0.00 | 0.00 | 0.00 | 66 | 1009.0 |
| 20260505101058 | 16 | 179 | 9.7 | 19.3 | 0.00 | 0.00 | 0.00 | 66 | 1008.7 |
| 20260505100559 | 16 | 190 | 8.0 | 25.7 | 0.00 | 0.00 | 0.00 | 65 | 1008.7 |
| 20260505100059 | 16 | 172 | 11.3 | 25.7 | 0.00 | 0.00 | 0.00 | 65 | 1008.3 |
| 20260505095559 | 16 | 189 | 14.5 | 20.9 | 0.00 | 0.00 | 0.00 | 65 | 1008.3 |
| 20260505095059 | 16 | 155 | 11.3 | 22.5 | 0.00 | 0.00 | 0.00 | 65 | 1008.3 |
| 20260505094558 | 16 | 179 | 9.7 | 22.5 | 0.00 | 0.00 | 0.00 | 65 | 1008.0 |
| 20260505094058 | 16 | 180 | 12.9 | 20.9 | 0.00 | 0.00 | 0.00 | 65 | 1008.3 |
| 20260505093558 | 16 | 201 | 6.4 | 20.9 | 0.00 | 0.00 | 0.00 | 65 | 1008.3 |
| 20260505093059 | 16 | 189 | 9.7 | 20.9 | 0.00 | 0.00 | 0.00 | 65 | 1008.3 |
| 20260505092559 | 16 | 161 | 12.9 | 22.5 | 0.00 | 0.00 | 0.00 | 65 | 1008.3 |
| 20260505092059 | 16 | 166 | 11.3 | 22.5 | 0.00 | 0.00 | 0.00 | 64 | 1008.3 |
| 20260505091559 | 16 | 175 | 17.7 | 22.5 | 0.00 | 0.00 | 0.00 | 64 | 1008.0 |
| 20260505091059 | 16 | 166 | 16.1 | 20.9 | 0.00 | 0.00 | 0.00 | 64 | 1008.3 |
| 20260505090559 | 16 | 163 | 9.7 | 19.3 | 0.00 | 0.00 | 0.00 | 64 | 1008.3 |
| 20260505090059 | 16 | 169 | 9.7 | 20.9 | 0.00 | 0.00 | 0.00 | 64 | 1008.3 |
| 20260505085559 | 16 | 157 | 16.1 | 20.9 | 0.00 | 0.00 | 0.00 | 64 | 1008.3 |
| 20260505085059 | 16 | 159 | 14.5 | 17.7 | 0.00 | 0.00 | 0.00 | 64 | 1008.3 |
| 20260505084558 | 16 | 182 | 12.9 | 17.7 | 0.00 | 0.00 | 0.00 | 64 | 1008.3 |
| 20260505084059 | 16 | 146 | 11.3 | 17.7 | 0.00 | 0.00 | 0.00 | 64 | 1008.3 |
| 20260505083559 | 16 | 171 | 11.3 | 17.7 | 0.00 | 0.00 | 0.00 | 64 | 1008.3 |
| 20260505083058 | 16 | 143 | 4.8 | 20.9 | 0.00 | 0.00 | 0.00 | 63 | 1008.0 |
| 20260505082559 | 16 | 149 | 11.3 | 20.9 | 0.00 | 0.00 | 0.00 | 62 | 1008.3 |
| 20260505082058 | 16 | 138 | 9.7 | 19.3 | 0.00 | 0.00 | 0.00 | 62 | 1008.3 |
| 20260505081558 | 16 | 158 | 11.3 | 17.7 | 0.00 | 0.00 | 0.00 | 62 | 1008.0 |
| 20260505081058 | 16 | 174 | 12.9 | 17.7 | 0.00 | 0.00 | 0.00 | 62 | 1008.3 |
| 20260505080558 | 16 | 176 | 8.0 | 19.3 | 0.00 | 0.00 | 0.00 | 62 | 1008.3 |
| 20260505080059 | 17 | 190 | 11.3 | 19.3 | 0.00 | 0.00 | 0.00 | 61 | 1008.7 |
| 20260505075559 | 17 | 178 | 9.7 | 16.1 | 0.00 | 0.00 | 0.00 | 61 | 1008.7 |
| 20260505075059 | 17 | 176 | 12.9 | 16.1 | 0.00 | 0.00 | 0.00 | 61 | 1008.3 |
| 20260505074559 | 17 | 180 | 11.3 | 16.1 | 0.00 | 0.00 | 0.00 | 60 | 1008.3 |
| 20260505074059 | 17 | 178 | 9.7 | 17.7 | 0.00 | 0.00 | 0.00 | 60 | 1008.7 |
| 20260505073558 | 17 | 183 | 8.0 | 17.7 | 0.00 | 0.00 | 0.00 | 60 | 1008.7 |
| 20260505073059 | 17 | 174 | 12.9 | 17.7 | 0.00 | 0.00 | 0.00 | 60 | 1008.7 |
| 20260505072559 | 17 | 160 | 9.7 | 19.3 | 0.00 | 0.00 | 0.00 | 59 | 1009.0 |
| 20260505072059 | 17 | 184 | 11.3 | 22.5 | 0.00 | 0.00 | 0.00 | 59 | 1009.0 |
| 20260505071559 | 17 | 182 | 6.4 | 22.5 | 0.00 | 0.00 | 0.00 | 59 | 1009.0 |
| 20260505071059 | 17 | 185 | 9.7 | 20.9 | 0.00 | 0.00 | 0.00 | 59 | 1009.0 |
| 20260505070559 | 17 | 170 | 12.9 | 20.9 | 0.00 | 0.00 | 0.00 | 59 | 1009.0 |
| 20260505070059 | 17 | 183 | 8.0 | 17.7 | 0.00 | 0.00 | 0.00 | 59 | 1009.0 |
| 20260505065558 | 17 | 184 | 8.0 | 17.7 | 0.00 | 0.00 | 0.00 | 58 | 1009.0 |
| 20260505065059 | 17 | 188 | 9.7 | 16.1 | 0.00 | 0.00 | 0.00 | 58 | 1009.4 |
| 20260505064558 | 17 | 171 | 9.7 | 14.5 | 0.00 | 0.00 | 0.00 | 59 | 1009.0 |
| 20260505064059 | 17 | 180 | 8.0 | 16.1 | 0.00 | 0.00 | 0.00 | 59 | 1009.0 |
| 20260505063559 | 17 | 177 | 9.7 | 16.1 | 0.00 | 0.00 | 0.00 | 59 | 1009.0 |
| 20260505063059 | 17 | 174 | 8.0 | 17.7 | 0.00 | 0.00 | 0.00 | 59 | 1009.0 |
| 20260505062559 | 17 | 168 | 8.0 | 17.7 | 0.00 | 0.00 | 0.00 | 58 | 1009.0 |
| 20260505062058 | 17 | 184 | 11.3 | 17.7 | 0.00 | 0.00 | 0.00 | 59 | 1009.4 |
| 20260505061558 | 17 | 179 | 12.9 | 14.5 | 0.00 | 0.00 | 0.00 | 59 | 1009.0 |
| 20260505061058 | 17 | 185 | 6.4 | 14.5 | 0.00 | 0.00 | 0.00 | 58 | 1009.0 |
| 20260505060558 | 17 | 170 | 12.9 | 14.5 | 0.00 | 0.00 | 0.00 | 58 | 1009.4 |
| 20260505060059 | 17 | 164 | 8.0 | 12.9 | 0.00 | 0.00 | 0.00 | 59 | 1009.4 |
| 20260505055558 | 17 | 158 | 11.3 | 14.5 | 0.00 | 0.00 | 0.00 | 58 | 1009.7 |
| 20260505055059 | 17 | 157 | 11.3 | 14.5 | 0.00 | 0.00 | 0.00 | 58 | 1009.4 |
| 20260505054559 | 17 | 165 | 11.3 | 14.5 | 0.00 | 0.00 | 0.00 | 57 | 1009.4 |
| 20260505054059 | 18 | 126 | 8.0 | 14.5 | 0.00 | 0.00 | 0.00 | 57 | 1009.7 |
| 20260505053559 | 18 | 159 | 11.3 | 14.5 | 0.00 | 0.00 | 0.00 | 56 | 1009.4 |
| 20260505053058 | 18 | 154 | 9.7 | 14.5 | 0.00 | 0.00 | 0.00 | 56 | 1009.7 |
| 20260505052558 | 18 | 157 | 8.0 | 12.9 | 0.00 | 0.00 | 0.00 | 56 | 1009.7 |
| 20260505052059 | 18 | 167 | 8.0 | 12.9 | 0.00 | 0.00 | 0.00 | 56 | 1009.7 |
| 20260505051559 | 18 | 154 | 9.7 | 14.5 | 0.00 | 0.00 | 0.00 | 56 | 1009.7 |
| 20260505051059 | 18 | 162 | 11.3 | 14.5 | 0.00 | 0.00 | 0.00 | 56 | 1009.4 |
| 20260505050559 | 18 | 160 | 9.7 | 14.5 | 0.00 | 0.00 | 0.00 | 55 | 1009.4 |
| 20260505041558 | 19 | 137 | 6.4 | 14.5 | 0.00 | 0.00 | 0.00 | 51 | 1009.4 |
| 20260505041058 | 19 | 137 | 6.4 | 14.5 | 0.00 | 0.00 | 0.00 | 51 | 1009.7 |
| 20260505040558 | 19 | 165 | 11.3 | 14.5 | 0.00 | 0.00 | 0.00 | 51 | 1009.4 |
| 20260505040058 | 19 | 157 | 9.7 | 12.9 | 0.00 | 0.00 | 0.00 | 51 | 1009.0 |
| 20260505035559 | 20 | 161 | 9.7 | 12.9 | 0.00 | 0.00 | 0.00 | 51 | 1009.4 |
| 20260505035059 | 20 | 170 | 9.7 | 12.9 | 0.00 | 0.00 | 0.00 | 51 | 1009.4 |
| 20260505034559 | 20 | 171 | 8.0 | 14.5 | 0.00 | 0.00 | 0.00 | 51 | 1009.0 |
| 20260505034059 | 20 | 152 | 9.7 | 14.5 | 0.00 | 0.00 | 0.00 | 51 | 1009.0 |
| 20260505033558 | 20 | 186 | 9.7 | 14.5 | 0.00 | 0.00 | 0.00 | 50 | 1009.4 |
| 20260505033059 | 20 | 186 | 9.7 | 14.5 | 0.00 | 0.00 | 0.00 | 50 | 1009.4 |
| 20260505032558 | 20 | 174 | 6.4 | 16.1 | 0.00 | 0.00 | 0.00 | 50 | 1009.4 |
| 20260505032059 | 20 | 180 | 6.4 | 16.1 | 0.00 | 0.00 | 0.00 | 49 | 1009.4 |
| 20260505031559 | 20 | 171 | 11.3 | 17.7 | 0.00 | 0.00 | 0.00 | 49 | 1009.4 |
| 20260505031059 | 20 | 171 | 11.3 | 17.7 | 0.00 | 0.00 | 0.00 | 49 | 1009.0 |
| 20260505030559 | 20 | 156 | 16.1 | 20.9 | 0.00 | 0.00 | 0.00 | 48 | 1009.4 |
| 20260505030059 | 20 | 156 | 16.1 | 20.9 | 0.00 | 0.00 | 0.00 | 48 | 1009.0 |
| 20260505025558 | 20 | 169 | 17.7 | 20.9 | 0.00 | 0.00 | 0.00 | 48 | 1009.0 |
| 20260505024059 | 21 | 165 | 14.5 | 19.3 | 0.00 | 0.00 | 0.00 | 47 | 1009.0 |
| 20260505023559 | 21 | 165 | 14.5 | 19.3 | 0.00 | 0.00 | 0.00 | 47 | 1009.0 |
| 20260505023059 | 21 | 165 | 14.5 | 19.3 | 0.00 | 0.00 | 0.00 | 47 | 1009.0 |
| 20260505022559 | 21 | 173 | 11.3 | 19.3 | 0.00 | 0.00 | 0.00 | 47 | 1009.0 |
| 20260505022059 | 21 | 150 | 12.9 | 19.3 | 0.00 | 0.00 | 0.00 | 46 | 1009.0 |
| 20260505021559 | 21 | 151 | 11.3 | 19.3 | 0.00 | 0.00 | 0.00 | 46 | 1009.4 |
| 20260505021058 | 21 | 183 | 8.0 | 17.7 | 0.00 | 0.00 | 0.00 | 46 | 1009.0 |
| 20260505020559 | 21 | 158 | 9.7 | 17.7 | 0.00 | 0.00 | 0.00 | 46 | 1009.0 |
| 20260505020059 | 21 | 172 | 12.9 | 17.7 | 0.00 | 0.00 | 0.00 | 45 | 1009.0 |
| 20260505015558 | 21 | 172 | 12.9 | 17.7 | 0.00 | 0.00 | 0.00 | 45 | 1009.0 |
| 20260505015059 | 21 | 166 | 14.5 | 17.7 | 0.00 | 0.00 | 0.00 | 45 | 1008.7 |
| 20260505014559 | 21 | 169 | 14.5 | 17.7 | 0.00 | 0.00 | 0.00 | 45 | 1009.0 |
| 20260505014059 | 22 | 168 | 12.9 | 17.7 | 0.00 | 0.00 | 0.00 | 43 | 1009.0 |
| 20260505013558 | 22 | 168 | 12.9 | 17.7 | 0.00 | 0.00 | 0.00 | 43 | 1009.0 |
| 20260505013059 | 22 | 181 | 17.7 | 17.7 | 0.00 | 0.00 | 0.00 | 44 | 1008.7 |
| 20260505012559 | 22 | 180 | 11.3 | 17.7 | 0.00 | 0.00 | 0.00 | 44 | 1008.7 |
| 20260505012058 | 22 | 162 | 11.3 | 16.1 | 0.00 | 0.00 | 0.00 | 44 | 1008.7 |
| 20260505011558 | 22 | 192 | 9.7 | 16.1 | 0.00 | 0.00 | 0.00 | 43 | 1008.7 |
| 20260505011059 | 22 | 180 | 12.9 | 16.1 | 0.00 | 0.00 | 0.00 | 43 | 1008.7 |
| 20260505010559 | 22 | 184 | 11.3 | 20.9 | 0.00 | 0.00 | 0.00 | 42 | 1008.7 |
| 20260505010058 | 22 | 184 | 11.3 | 20.9 | 0.00 | 0.00 | 0.00 | 42 | 1009.0 |
| 20260505005559 | 22 | 202 | 14.5 | 19.3 | 0.00 | 0.00 | 0.00 | 42 | 1008.7 |
| 20260505005059 | 22 | 185 | 11.3 | 19.3 | 0.00 | 0.00 | 0.00 | 42 | 1009.0 |
| 20260505004559 | 22 | 187 | 12.9 | 19.3 | 0.00 | 0.00 | 0.00 | 42 | 1008.7 |
| 20260505003058 | 23 | 185 | 17.7 | 24.1 | 0.00 | 0.00 | 0.00 | 40 | 1008.7 |
| 20260505002559 | 23 | 185 | 17.7 | 24.1 | 0.00 | 0.00 | 0.00 | 40 | 1008.3 |
| 20260505002058 | 23 | 185 | 17.7 | 24.1 | 0.00 | 0.00 | 0.00 | 40 | 1008.7 |
| 20260505001558 | 23 | 189 | 16.1 | 22.5 | 0.00 | 0.00 | 0.00 | 39 | 1008.3 |
| 20260505001058 | 23 | 189 | 16.1 | 25.7 | 0.00 | 0.00 | 0.00 | 39 | 1008.0 |
| 20260505000558 | 23 | 178 | 20.9 | 25.7 | 0.00 | 0.00 | 0.00 | 39 | 1008.3 |
| 20260505000059 | 23 | 182 | 16.1 | 25.7 | 0.00 | 0.00 | 0.00 | 39 | 1008.3 |
| 20260504235558 | 23 | 140 | 8.0 | 20.9 | 0.00 | 0.00 | 0.00 | 39 | 1008.3 |
| 20260504235058 | 23 | 140 | 8.0 | 24.1 | 0.00 | 0.00 | 0.00 | 39 | 1008.7 |
| 20260504234558 | 23 | 140 | 8.0 | 24.1 | 0.00 | 0.00 | 0.00 | 39 | 1008.7 |
| 20260504234059 | 24 | 194 | 22.5 | 35.4 | 0.00 | 0.00 | 0.00 | 39 | 1008.3 |
| 20260504233559 | 24 | 168 | 4.8 | 35.4 | 0.00 | 0.00 | 0.00 | 38 | 1008.3 |
| 20260504233059 | 24 | 187 | 24.1 | 35.4 | 0.00 | 0.00 | 0.00 | 37 | 1008.3 |
| 20260504232559 | 24 | 190 | 11.3 | 29.0 | 0.00 | 0.00 | 0.00 | 38 | 1008.3 |
| 20260504232059 | 24 | 106 | 4.8 | 29.0 | 0.00 | 0.00 | 0.00 | 38 | 1008.3 |
| 20260504231559 | 24 | 198 | 17.7 | 29.0 | 0.00 | 0.00 | 0.00 | 38 | 1008.3 |
| 20260504231059 | 24 | 206 | 4.8 | 29.0 | 0.00 | 0.00 | 0.00 | 39 | 1008.3 |
| 20260504230558 | 25 | 195 | 14.5 | 24.1 | 0.00 | 0.00 | 0.00 | 37 | 1008.7 |
| 20260504230059 | 25 | 195 | 14.5 | 24.1 | 0.00 | 0.00 | 0.00 | 37 | 1008.3 |
| 20260504225559 | 24 | 179 | 17.7 | 32.2 | 0.00 | 0.00 | 0.00 | 37 | 1008.7 |
| 20260504225059 | 24 | 179 | 17.7 | 32.2 | 0.00 | 0.00 | 0.00 | 37 | 1008.3 |
| 20260504224558 | 25 | 203 | 19.3 | 37.0 | 0.00 | 0.00 | 0.00 | 37 | 1008.3 |
| 20260504224059 | 25 | 240 | 9.7 | 37.0 | 0.00 | 0.00 | 0.00 | 37 | 1008.3 |
| 20260504223558 | 25 | 194 | 30.6 | 37.0 | 0.00 | 0.00 | 0.00 | 36 | 1008.0 |
| 20260504223059 | 25 | 191 | 29.0 | 30.6 | 0.00 | 0.00 | 0.00 | 36 | 1008.3 |
| 20260504222559 | 25 | 186 | 20.9 | 38.6 | 0.00 | 0.00 | 0.00 | 34 | 1008.3 |
| 20260504221559 | 25 | 184 | 33.8 | 43.5 | 0.00 | 0.00 | 0.00 | 34 | 1008.7 |
| 20260504221058 | 25 | 191 | 32.2 | 35.4 | 0.00 | 0.00 | 0.00 | 34 | 1008.3 |
| 20260504220559 | 25 | 155 | 12.9 | 40.2 | 0.00 | 0.00 | 0.00 | 35 | 1008.7 |
| 20260504220058 | 25 | 155 | 12.9 | 40.2 | 0.00 | 0.00 | 0.00 | 35 | 1008.7 |
| 20260504215558 | 25 | 181 | 33.8 | 40.2 | 0.00 | 0.00 | 0.00 | 35 | 1008.7 |
| 20260504215058 | 25 | 179 | 12.9 | 35.4 | 0.00 | 0.00 | 0.00 | 36 | 1008.7 |
| 20260504214558 | 25 | 177 | 24.1 | 35.4 | 0.00 | 0.00 | 0.00 | 35 | 1008.3 |
| 20260504214058 | 25 | 186 | 14.5 | 35.4 | 0.00 | 0.00 | 0.00 | 35 | 1008.7 |
| 20260504213559 | 25 | 185 | 32.2 | 35.4 | 0.00 | 0.00 | 0.00 | 34 | 1008.7 |
| 20260504213058 | 25 | 214 | 19.3 | 35.4 | 0.00 | 0.00 | 0.00 | 35 | 1008.7 |
| 20260504212558 | 25 | 184 | 19.3 | 38.6 | 0.00 | 0.00 | 0.00 | 36 | 1008.7 |
| 20260504212059 | 25 | 182 | 35.4 | 38.6 | 0.00 | 0.00 | 0.00 | 36 | 1008.7 |
| 20260504211559 | 25 | 197 | 27.4 | 38.6 | 0.00 | 0.00 | 0.00 | 36 | 1008.7 |
| 20260504211058 | 25 | 197 | 14.5 | 20.9 | 0.00 | 0.00 | 0.00 | 36 | 1008.7 |
| 20260504210559 | 25 | 197 | 14.5 | 33.8 | 0.00 | 0.00 | 0.00 | 36 | 1009.0 |
| 20260504210059 | 25 | 120 | 9.7 | 33.8 | 0.00 | 0.00 | 0.00 | 37 | 1009.0 |
| 20260504205559 | 25 | 240 | 9.7 | 22.5 | 0.00 | 0.00 | 0.00 | 37 | 1009.0 |
| 20260504205058 | 25 | 209 | 3.2 | 22.5 | 0.00 | 0.00 | 0.00 | 39 | 1009.0 |
| 20260504203058 | 25 | 143 | 14.5 | 25.7 | 0.00 | 0.00 | 0.00 | 38 | 1009.4 |
| 20260504202559 | 25 | 143 | 14.5 | 25.7 | 0.00 | 0.00 | 0.00 | 38 | 1009.4 |
| 20260504202058 | 25 | 143 | 14.5 | 29.0 | 0.00 | 0.00 | 0.00 | 38 | 1009.0 |
| 20260504201558 | 25 | 182 | 12.9 | 29.0 | 0.00 | 0.00 | 0.00 | 38 | 1009.7 |
| 20260504201059 | 25 | 173 | 16.1 | 29.0 | 0.00 | 0.00 | 0.00 | 37 | 1009.7 |
| 20260504200559 | 25 | 197 | 14.5 | 37.0 | 0.00 | 0.00 | 0.00 | 38 | 1009.7 |
| 20260504200059 | 25 | 199 | 32.2 | 37.0 | 0.00 | 0.00 | 0.00 | 37 | 1009.7 |
| 20260504195558 | 25 | 199 | 32.2 | 37.0 | 0.00 | 0.00 | 0.00 | 37 | 1009.7 |
| 20260504195059 | 25 | 199 | 32.2 | 37.0 | 0.00 | 0.00 | 0.00 | 37 | 1009.7 |
| 20260504194558 | 24 | 167 | 8.0 | 29.0 | 0.00 | 0.00 | 0.00 | 40 | 1009.7 |
| 20260504194058 | 25 | 194 | 25.7 | 29.0 | 0.00 | 0.00 | 0.00 | 38 | 1010.1 |
| 20260504193558 | 25 | 209 | 4.8 | 20.9 | 0.00 | 0.00 | 0.00 | 40 | 1010.1 |
| 20260504193058 | 25 | 182 | 20.9 | 20.9 | 0.00 | 0.00 | 0.00 | 40 | 1010.1 |
| 20260504192558 | 25 | 182 | 20.9 | 30.6 | 0.00 | 0.00 | 0.00 | 39 | 1010.1 |
| 20260504192058 | 25 | 143 | 14.5 | 30.6 | 0.00 | 0.00 | 0.00 | 39 | 1010.1 |
| 20260504191559 | 25 | 184 | 8.0 | 20.9 | 0.00 | 0.00 | 0.00 | 39 | 1010.4 |
| 20260504191059 | 25 | 184 | 8.0 | 25.7 | 0.00 | 0.00 | 0.00 | 37 | 1010.4 |
| 20260504190559 | 25 | 188 | 14.5 | 25.7 | 0.00 | 0.00 | 0.00 | 37 | 1010.4 |
| 20260504190058 | 24 | 170 | 11.3 | 25.7 | 0.00 | 0.00 | 0.00 | 41 | 1010.8 |
| 20260504185558 | 24 | 170 | 11.3 | 25.7 | 0.00 | 0.00 | 0.00 | 41 | 1010.1 |
| 20260504185059 | 24 | 194 | 24.1 | 25.7 | 0.00 | 0.00 | 0.00 | 41 | 1010.1 |
| 20260504184558 | 25 | 182 | 14.5 | 24.1 | 0.00 | 0.00 | 0.00 | 40 | 1010.4 |
| 20260504184058 | 24 | 253 | 3.2 | 24.1 | 0.00 | 0.00 | 0.00 | 40 | 1010.8 |
| 20260504183558 | 24 | 253 | 3.2 | 24.1 | 0.00 | 0.00 | 0.00 | 40 | 1010.4 |
| 20260504183059 | 24 | 186 | 19.3 | 24.1 | 0.00 | 0.00 | 0.00 | 41 | 1010.8 |
| 20260504182559 | 24 | 186 | 19.3 | 27.4 | 0.00 | 0.00 | 0.00 | 41 | 1010.8 |
| 20260504181558 | 23 | 227 | 17.7 | 27.4 | 0.00 | 0.00 | 0.00 | 42 | 1010.8 |
| 20260504181058 | 23 | 227 | 17.7 | 32.2 | 0.00 | 0.00 | 0.00 | 42 | 1010.8 |
| 20260504180559 | 24 | 229 | 29.0 | 32.2 | 0.00 | 0.00 | 0.00 | 42 | 1010.8 |
| 20260504180059 | 24 | 229 | 29.0 | 32.2 | 0.00 | 0.00 | 0.00 | 42 | 1010.8 |
| 20260504175558 | 24 | 229 | 29.0 | 32.2 | 0.00 | 0.00 | 0.00 | 42 | 1010.8 |
| 20260504175059 | 23 | 194 | 16.1 | 30.6 | 0.00 | 0.00 | 0.00 | 43 | 1011.1 |
| 20260504174559 | 23 | 212 | 20.9 | 33.8 | 0.00 | 0.00 | 0.00 | 44 | 1010.8 |
| 20260504174059 | 23 | 212 | 20.9 | 33.8 | 0.00 | 0.00 | 0.00 | 44 | 1011.1 |
| 20260504173558 | 24 | 179 | 29.0 | 33.8 | 0.00 | 0.00 | 0.00 | 43 | 1010.8 |
| 20260504173058 | 23 | 204 | 17.7 | 29.0 | 0.00 | 0.00 | 0.00 | 44 | 1011.5 |
| 20260504172559 | 23 | 183 | 24.1 | 29.0 | 0.00 | 0.00 | 0.00 | 44 | 1011.1 |
| 20260504172058 | 23 | 183 | 24.1 | 32.2 | 0.00 | 0.00 | 0.00 | 44 | 1011.5 |
| 20260504171558 | 23 | 183 | 24.1 | 32.2 | 0.00 | 0.00 | 0.00 | 44 | 1011.5 |
| 20260504171058 | 23 | 240 | 14.5 | 32.2 | 0.00 | 0.00 | 0.00 | 44 | 1011.5 |
| 20260504170558 | 23 | 127 | 6.4 | 32.2 | 0.00 | 0.00 | 0.00 | 45 | 1011.8 |
| 20260504151058 | 20 | 164 | 14.5 | 24.1 | 0.00 | 0.00 | 0.00 | 52 | 1012.8 |
| 20260504150558 | 20 | 160 | 11.3 | 29.0 | 0.00 | 0.00 | 0.00 | 52 | 1012.8 |
| 20260504140842 | 18 | 213 | 11.3 | 27.4 | 0.00 | 0.00 | 0.00 | 56 | 1013.2 |
| 20260504140342 | 18 | 213 | 11.3 | 27.4 | 0.00 | 0.00 | 0.00 | 56 | 1012.8 |